Tracking 31027 objects as of 19-Jul-2025
HD Live streaming from Space Station
objects crossing your sky now

STARLINK-3370

Track STARLINK-3370 now!
10-day predictions
STARLINK-3370 is classified as:


NORAD ID: 51127
Int'l Code: 2022-005Z
Perigee: 546.1 km
Apogee: 547.7 km
Inclination: 53.2 °
Period: 95.4 minutes
Semi major axis: 6917 km
RCS: Unknown
Launch date: January 19, 2022
Source: United States (US)
Launch site: AIR FORCE EASTERN TEST RANGE (AFETR)
Your satellite tracking list
MAROC TUBSAT
Track 1 satellite(s)




NASA's NSSDC Master Catalog

Two Line Element Set (TLE):
1 51127U 22005Z   25199.59563102  .00000131  00000-0  26343-4 0  9999
2 51127  53.2173 270.0228 0001120  89.2444 270.8676 15.08839700194512
Source of the keplerian elements: AFSPC